TOURFACTS.DK  
Stats and Facts from Tour de France.

Tour de France 2019 starts in 354 days
  Riders   Stages   Teams   Summits   Yearly  


 
Search by year

After 2018 - Stage 9:
 15000 starters.
  5163 different riders.
  639 teams.
  2241 stages.
  456 restdays.
  441138.60 km.
  5662 abandonnees.


Top 3
GC
Christopher Froome86:20:55
Rigoberto Urán86:21:49
Romain Bardet86:23:15
Climb
Warren Barguil169 pt.
Primoz Roglic80 pt.
Thomas De Gendt64 pt.
Sprint
Michael Matthews359 pt.
André Greipel234 pt.
Edvald Boasson Hagen220 pt.
Youth
Simon Yates86:27:09
Louis Meintjes86:29:15
Emanuel Buchmann86:54:16
Facts from Tour de France 1950
  |   Stages.  |   Stage winners.  |   Days in yellow  |   Average speed.  |   Route.  |   Teams.  |   All riders.  |   Rookies.  |  

  |   Withdrawls.  |   GC.  |   Polka  |   Green  |   White  |   Summits. (In tour)  |   Miscellaneous.  |  

Stage 6 on July 19th. 1950
         Owning:    Bernard Gauthier    
Pick a stage:  1 2 3 4 5 6 7 8 9 10 11 12 13 14 15 16 17 18 19 20 21 22
  DinardSaint-Brieuc | Dist: 78.00 km.

Average speed for all riders in stage:  37,054 km./hr.
    Place:Name:Team:Time:Km/h:
SUIFerdi KüblerCHESwitzerland01:57:22  +  00:00:00=39,875 
ITAVittorio MagniITAItaly01:57:39  +  00:00:17=39,779 
LUXJean GoldschmitLUXLuxembourg01:58:18  +  00:00:56=39,560 
4 BELMaurice BlommeBELBelgium01:58:38  +  00:01:16=39,449 
5 BELRoger LambrechtBELBelgium02:00:17  +  00:02:55=38,908 
6 FRALouison BobetFRAFrance02:00:17  +  00:02:55=38,908 
7 BELStan OckersBELBelgium02:00:48  +  00:03:26=38,742 
8 FRABernard GauthierFRASouth-East02:01:05  +  00:03:43=38,651 
9 FRAMarcel DussaultFRACenter-South West02:01:23  +  00:04:01=38,556 
10 FRAGeorges MeunierFRACenter-South West02:01:56  +  00:04:34=38,382 
11 ITAGino BartaliITAItaly02:01:57  +  00:04:35=38,376 
12 LUXJean KirchenLUXLuxembourg02:02:02  +  00:04:40=38,350 
13 ITASerifano BiagioniITAItaly02:02:27  +  00:05:05=38,220 
14 ITAAttilio RedolfiFRAIle De France-North East02:02:31  +  00:05:09=38,199 
15 ITANello LaurediFRAFrance02:02:55  +  00:05:33=38,075 
16 FRAKléber PiotFRAIle De France-North East02:03:03  +  00:05:41=38,033 
17 FRALouis DeprezFRAFrance02:03:06  +  00:05:44=38,018 
18 FRAAndre MahéFRAWest02:03:15  +  00:05:53=37,972 
19 BELBriek SchotteBELBelgium02:03:19  +  00:05:57=37,951 
20 FRARaphaël GeminianiFRAFrance02:03:24  +  00:06:02=37,925 
21 BELRaymond ImpanisBELBelgium02:03:35  +  00:06:13=37,869 
22 LUXJean DiederichLUXLuxembourg02:03:38  +  00:06:16=37,854 
23 FRAJean RobicFRAWest02:03:41  +  00:06:19=37,839 
24 BELEduard Van EndeBELBelgium02:04:12  +  00:06:50=37,681 
25 FRADominique ForliniFRAParis02:04:18  +  00:06:56=37,651 
26 FRAGilbert BauvinFRAIle De France-North East02:04:18  +  00:06:56=37,651 
27 FRARobert CastelinFRASouth-East02:04:25  +  00:07:03=37,616 
28 FRASerge BlussonFRAParis02:04:30  +  00:07:08=37,590 
29 BELMarcel VerschuerenBELAiglons Belges02:04:31  +  00:07:09=37,585 
30 FRAPierre CoganFRACenter-South West02:04:34  +  00:07:12=37,570 
31 FRAAntonin RollandFRASouth-East02:04:43  +  00:07:21=37,525 
32 FRAMaurice De MuerFRAIle De France-North East02:04:46  +  00:07:24=37,510 
33 ITASylvio PedroniITAItaly02:04:54  +  00:07:32=37,470 
34 FRARoger CretonFRAWest02:04:56  +  00:07:34=37,460 
35 ITAVirgilio SalimbeniITAItaly02:04:59  +  00:07:37=37,445 
36 FRARoger PontetFRAWest02:05:06  +  00:07:44=37,410 
37 FRAAndré BruléFRAIle De France-North East02:05:09  +  00:07:47=37,395 
38 FRARobert DesbatsFRAFrance02:05:16  +  00:07:54=37,360 
39 FRAJean BaldassariFRAParis02:05:29  +  00:08:07=37,296 
40 ITAGino SciardisFRAWest02:05:29  +  00:08:07=37,296 
41 BELMarcel HendrickxBELBelgium02:05:30  +  00:08:08=37,291 
42 NEDWim De RuyterNLDHolland02:05:38  +  00:08:16=37,251 
43 NEDGerrit VoortingNLDHolland02:05:42  +  00:08:20=37,232 
44 ITAGiovanni CorrieriITAItaly02:05:50  +  00:08:28=37,192 
45 LUXMarcel ErnzerLUXLuxembourg02:05:50  +  00:08:28=37,192 
46 ALGAhmed KebaïliNAFNorth Africa02:05:50  +  00:08:28=37,192 
47 ITAGiulio BresciITACadetti Italiens02:06:01  +  00:08:39=37,138 
48 BELHilaire CouvreurBELBelgium02:06:05  +  00:08:43=37,118 
49 MARCustodio Dos ReisNAFNorth Africa02:06:20  +  00:08:58=37,045 
50 LUXHenri KellenLUXLuxembourg02:06:27  +  00:09:05=37,011 
51 FRAPaul GiguetFRAFrance02:06:34  +  00:09:12=36,977 
52 FRARobert BonnaventureFRAWest02:06:37  +  00:09:15=36,962 
53 BELJoseph VerhaertBELBelgium02:06:46  +  00:09:24=36,918 
54 ITAAlfredo PasottiITACadetti Italiens02:06:46  +  00:09:24=36,918 
55 FRAPierre MolinerisFRAFrance02:06:52  +  00:09:30=36,889 
56 SUIEmilio Croci TortiCHESwitzerland02:06:58  +  00:09:36=36,860 
57 FRARobert ChapatteFRAParis02:07:03  +  00:09:41=36,836 
58 ITAGiuseppe TaccaFRAIle De France-North East02:07:03  +  00:09:41=36,836 
59 FRAAntonin CanaveseFRASouth-East02:07:03  +  00:09:41=36,836 
60 ITAAlberto GhirardiITACadetti Italiens02:07:07  +  00:09:45=36,817 
61 FRAAlain MoineauFRACenter-South West02:07:19  +  00:09:57=36,759 
62 BELJan StormsBELAiglons Belges02:07:23  +  00:10:01=36,740 
63 FRARoger ChupinFRAWest02:07:31  +  00:10:09=36,701 
64 SUIPierre BrambillaFRASouth-East02:07:35  +  00:10:13=36,682 
65 FRABasile DecortèsFRAWest02:07:35  +  00:10:13=36,682 
66 FRAMaurice KallertFRASouth-East02:07:39  +  00:10:17=36,663 
67 FRAEmile BaffertFRAFrance02:07:43  +  00:10:21=36,644 
68 BELMarcel DupontBELBelgium02:07:43  +  00:10:21=36,644 
69 FRARaoul RemyFRASouth-East02:08:12  +  00:10:50=36,505 
70 FRAArmand DarnauguilhemFRACenter-South West02:08:12  +  00:10:50=36,505 
71 SUIGottfried WeilenmannCHESwitzerland02:08:14  +  00:10:52=36,496 
72 FRAPaul PineauFRACenter-South West02:08:18  +  00:10:56=36,477 
73 ITAAdolfo LeoniITACadetti Italiens02:08:20  +  00:10:58=36,468 
74 FRARoger QueugnetFRAIle De France-North East02:08:33  +  00:11:11=36,406 
75 FRADaniel ThuayreFRAIle De France-North East02:08:46  +  00:11:24=36,345 
76 FRAJacques MarinelliFRAFrance02:08:48  +  00:11:26=36,335 
77 NEDFrans VosNLDHolland02:08:55  +  00:11:33=36,303 
78 ITAAngelo BrignoleITAItaly02:08:57  +  00:11:35=36,293 
79 FRAJean-Marie GoasmatFRAWest02:09:00  +  00:11:38=36,279 
80 LUXWilly KempLUXLuxembourg02:09:02  +  00:11:40=36,270 
81 BELArmand BaeyensBELAiglons Belges02:09:08  +  00:11:46=36,242 
82 SUIFritz ZbindenCHESwitzerland02:09:12  +  00:11:50=36,223 
83 FRANoel LajoieFRACenter-South West02:09:14  +  00:11:52=36,214 
84 SUIGeorges AeschlimannCHESwitzerland02:09:16  +  00:11:54=36,204 
85 ITALuciano PezziITAItaly02:09:20  +  00:11:58=36,186 
86 POLAntoine FrankowskiFRAParis02:09:20  +  00:11:58=36,186 
87 FRAJosé BeyaertFRAParis02:09:27  +  00:12:05=36,153 
88 NEDHenk de HoogNLDHolland02:09:42  +  00:12:20=36,083 
89 ITAGaliano PividoriFRAIle De France-North East02:09:48  +  00:12:26=36,055 
90 ITAValerio BoniniITACadetti Italiens02:10:05  +  00:12:43=35,977 
91 BELMarcel De MulderBELAiglons Belges02:10:06  +  00:12:44=35,972 
92 SUIMartin MetzgerCHESwitzerland02:10:26  +  00:13:04=35,880 
93 ALGAbdel-Kader ZaafNAFNorth Africa02:10:27  +  00:13:05=35,876 
94 FRAArmand AudaireFRAWest02:10:34  +  00:13:12=35,844 
95 ALGMarcel MolinesNAFNorth Africa02:10:38  +  00:13:16=35,825 
96 ALGMarcel ZelascoNAFNorth Africa02:10:39  +  00:13:17=35,821 
97 MEXAttilio LambertiniITAItaly02:10:43  +  00:13:21=35,803 
98 ITARemo SabattiniITACadetti Italiens02:10:50  +  00:13:28=35,771 
99 ITANello SforacchiFRAIle De France-North East02:11:01  +  00:13:39=35,721 
100 BELAlbert DubuissonBELAiglons Belges02:11:02  +  00:13:40=35,716 
101 FRAHervé ProuzetFRACenter-South West02:11:03  +  00:13:41=35,712 
102 FRAJean-Apotre LazaridesFRAFrance02:11:03  +  00:13:41=35,712 
103 NEDWout WagtmansNLDHolland02:11:07  +  00:13:45=35,693 
104 FRARobert DorgebrayFRAParis02:11:11  +  00:13:49=35,675 

Withdrawls: 6
 
Rider
Team
Reason
57  BELLeopold De RijckeBELAiglons BelgesDid not finish
68  FRALucien LaukFRAParisDid not finish
69  FRAMaurice QuentinFRAParisDid not finish
70  FRAJacques RenaudFRAParisDid not finish
101  FRAMarius BonnetFRASouth-EastDid not finish
109  FRAEmile RolFRASouth-EastDid not finish

Todays birthdays.

1876  Frédéric Rigaux
1896  Federico Gay
1901  Paul Delbart
1944  Jean-Pierre Ducasse
1948  Marc Lievens
1961  Willem Wijnant
1964  Miguel Indurain
1965  Gianni Faresin
1973  Stefano Garzelli
1982  André Greipel
1984  Alan Marangoni




Visits: